Vorticity
8 8 5 5 6 10 9 8 9 10 12 9 9 4 8 8 3 0 3 2 3 4 8 1 -2 15 -6 10 8 -4 6 6 2 2 5 5 4 9 31 13 7 11 11 6 4
7 10 6 5 5 9 8 6 8 10 10 9 9 1 7 6 3 2 1 2 3 4 6 8 4 6 -10 4 5 13 6 -6 6 3 6 4 7 8 18 14 8 12 10 3 3
8 7 8 5 6 7 8 6 8 13 11 9 10 1 9 3 1 1 5 1 1 16 8 8 1 8 3 2 -3 7 11 9 5 -1 2 6 7 13 13 14 13 13 14 7 4
10 7 9 6 6 5 8 6 8 13 11 9 10 2 6 2 2 3 5 0 3 13 8 0 -5 9 13 32 13 4 -5 -1 3 6 8 5 9 14 14 9 11 13 11 12 6
7 9 7 7 6 7 3 5 10 13 11 10 9 3 5 2 6 4 3 0 4 11 1 -1 -1 5 18 12 6 2 -2 12 8 3 -2 2 5 5 13 17 12 10 11 9 12
4 10 7 8 6 6 7 4 12 11 9 9 7 5 5 4 2 3 2 2 5 6 18 6 17 9 20 5 10 9 8 13 3 2 -5 2 3 3 7 10 18 12 9 14 11
4 9 8 8 6 6 7 8 10 11 8 7 4 5 4 3 4 5 3 3 6 8 23 10 6 14 2 -6 14 7 9 10 -3 12 -3 12 -3 -0 -8 7 7 19 19 6 8
4 6 10 7 8 6 6 8 7 11 7 6 3 3 3 4 5 3 3 3 4 8 21 2 -1 10 15 14 8 5 17 7 13 9 40 15 13 0 5 9 9 9 17 13 9
4 5 10 8 8 7 5 7 8 11 10 7 5 3 4 2 2 5 3 3 6 10 19 10 -1 2 -3 5 12 12 2 9 7 18 10 10 5 5 3 -1 8 16 12 12 14
4 5 10 10 8 7 6 6 7 8 10 7 6 5 1 4 3 1 5 5 9 12 16 4 16 3 1 0 5 10 -3 8 -13 7 3 8 1 3 3 1 7 10 5 8 13
4 5 9 11 9 8 6 5 6 7 7 7 7 7 7 3 9 1 7 5 12 14 12 16 5 6 2 1 -0 18 -1 6 7 16 8 19 4 3 3 6 7 19 -6 5 6
5 6 8 10 10 9 8 7 6 7 7 6 8 7 5 10 10 6 9 7 11 12 12 2 1 -3 4 11 -0 1 14 8 16 -2 3 23 42 8 15 7 12 13 14 9 7
6 6 8 8 10 10 11 10 7 5 4 6 6 5 5 7 7 8 12 11 7 13 8 8 7 -10 -0 -0 0 5 9 0 10 -4 8 19 34 16 11 -4 3 7 14 7 7
6 6 7 6 6 9 11 13 11 6 4 6 6 7 6 5 6 5 5 5 10 7 2 1 6 9 -2 -4 3 7 4 4 -0 5 4 32 10 11 9 3 13 8 6 14 7
7 6 6 5 7 7 9 13 11 11 7 8 5 6 7 6 5 8 6 7 10 3 9 4 6 8 1 12 6 15 1 3 1 2 6 33 -8 13 9 14 1 10 7 7 2
9 6 6 5 6 9 8 9 11 11 9 9 8 7 6 7 7 5 7 8 4 8 4 7 14 8 -6 -1 3 14 9 8 12 8 1 8 -0 21 6 17 12 8 11 8 8
10 7 5 4 6 7 8 7 8 10 10 10 11 5 6 8 8 8 7 7 4 4 8 8 10 -3 -3 -1 -0 5 12 9 6 4 9 3 -0 25 7 13 2 -6 34 21 10
9 7 7 4 5 7 8 7 9 9 6 9 8 7 7 7 6 9 7 10 9 14 3 10 6 20 8 -3 1 1 5 -1 5 11 12 -1 6 -2 32 -9 -11 0 -7 6 12
9 10 6 4 5 7 7 8 9 9 8 10 11 5 5 6 6 6 9 10 11 8 9 10 11 -3 2 3 3 -3 8 7 2 6 21 2 10 1 4 14 1 17 25 -8 -2
9 9 6 5 4 6 7 10 10 9 9 11 10 6 7 6 4 6 8 5 9 11 4 2 7 10 -3 1 2 5 -4 2 -1 -5 22 14 -0 10 2 7 8 6 10 2 31
10 6 7 6 5 6 7 10 11 11 8 7 12 6 7 5 5 7 10 8 5 9 1 10 1 4 2 0 5 13 7 6 2 4 10 15 16 8 9 4 4 4 5 13 9
12 6 6 6 5 6 7 10 9 9 6 5 10 9 5 4 4 7 4 7 6 5 11 -1 3 3 3 3 5 7 -1 -1 -1 4 9 18 11 4 3 3 1 6 5 8 11
12 9 6 6 6 7 9 10 6 11 3 4 6 6 9 8 8 7 3 7 8 7 4 5 1 3 3 4 10 6 1 3 1 -0 2 12 17 5 1 4 9 -0 10 7 8
7 11 8 4 6 5 9 10 7 10 5 3 4 10 7 8 16 12 3 6 10 8 8 3 5 4 -6 3 2 -2 10 5 7 9 3 2 4 5 10 16 10 10 15 11 1
8 9 13 8 4 6 7 10 11 4 4 4 8 -4 3 9 13 15 6 8 9 10 3 2 9 7 8 2 1 2 6 1 4 5 0 -1 1 3 0 2 7 8 8 5 3
8 6 11 11 7 4 6 10 15 1 4 4 -4 1 3 12 16 15 13 5 1 12 9 9 6 8 5 7 4 3 5 2 3 -3 5 4 2 5 0 1 12 4 8 6 1
7 9 6 10 11 7 5 6 14 5 1 4 7 10 4 6 2 20 8 2 4 3 5 7 5 7 3 6 7 5 11 8 2 -2 1 5 -0 1 1 2 10 9 6 5 4
Height
5866 5868 5870 5872 5873 5874 5875 5877 5878 5880 5883 5887 5890 5892 5894 5894 5896 5896 5897 5899 5900 5900 5903 5903 5905 5903 5902 5902 5901 5900 5899 5896 5893 5889 5887 5883 5877 5876 5872 5872 5872 5873 5875 5877 5879
5863 5865 5867 5870 5871 5872 5874 5876 5876 5879 5882 5886 5889 5891 5894 5894 5896 5897 5897 5899 5902 5902 5902 5906 5905 5904 5903 5902 5903 5903 5901 5898 5895 5893 5891 5888 5883 5879 5876 5874 5875 5875 5876 5877 5880
5859 5861 5864 5867 5869 5870 5872 5874 5875 5878 5881 5884 5888 5891 5893 5895 5896 5897 5897 5900 5903 5904 5902 5904 5906 5906 5905 5905 5905 5904 5902 5901 5897 5896 5895 5892 5889 5886 5881 5878 5878 5878 5879 5880 5882
5854 5858 5861 5864 5866 5869 5871 5873 5874 5877 5879 5883 5887 5890 5893 5895 5896 5896 5898 5901 5905 5906 5905 5905 5908 5908 5907 5906 5906 5905 5903 5901 5899 5899 5897 5896 5894 5892 5888 5883 5881 5881 5881 5882 5884
5849 5853 5856 5861 5863 5866 5869 5871 5873 5876 5878 5882 5886 5889 5893 5895 5896 5897 5898 5902 5905 5907 5907 5906 5907 5907 5907 5908 5906 5904 5903 5902 5901 5898 5899 5898 5897 5897 5894 5891 5886 5884 5884 5884 5884
5844 5848 5852 5857 5860 5863 5866 5869 5872 5875 5877 5881 5885 5889 5892 5895 5895 5896 5899 5903 5904 5908 5909 5909 5909 5907 5907 5907 5905 5904 5903 5903 5903 5902 5903 5902 5901 5900 5898 5896 5892 5887 5886 5886 5886
5838 5842 5847 5852 5856 5860 5863 5867 5870 5873 5876 5880 5883 5888 5892 5895 5895 5897 5900 5904 5904 5908 5910 5910 5909 5910 5908 5907 5905 5903 5904 5904 5906 5906 5905 5903 5903 5902 5902 5899 5895 5891 5888 5887 5887
5831 5836 5841 5847 5852 5856 5860 5864 5868 5871 5874 5878 5882 5887 5891 5894 5895 5896 5900 5904 5904 5908 5909 5911 5911 5910 5909 5908 5907 5907 5908 5907 5907 5908 5905 5906 5904 5903 5903 5901 5899 5895 5891 5888 5887
5824 5830 5835 5841 5847 5853 5857 5861 5865 5868 5872 5876 5882 5886 5890 5892 5893 5895 5898 5903 5904 5908 5910 5911 5913 5912 5911 5910 5910 5910 5911 5909 5910 5910 5909 5907 5904 5904 5903 5902 5901 5900 5896 5893 5892
5816 5824 5829 5835 5841 5848 5853 5858 5862 5867 5871 5875 5880 5886 5887 5889 5893 5895 5897 5902 5905 5908 5910 5911 5913 5913 5913 5913 5914 5913 5913 5912 5911 5911 5908 5906 5905 5904 5903 5902 5901 5900 5899 5896 5897
5809 5817 5823 5829 5836 5843 5849 5856 5862 5867 5869 5874 5879 5883 5887 5891 5893 5896 5897 5901 5906 5909 5909 5912 5915 5915 5914 5916 5915 5915 5915 5914 5913 5912 5910 5906 5905 5904 5904 5903 5902 5902 5901 5899 5897
5801 5810 5817 5823 5830 5839 5845 5852 5858 5865 5868 5872 5876 5881 5885 5889 5893 5896 5899 5902 5905 5909 5909 5913 5915 5916 5915 5917 5915 5915 5916 5916 5914 5913 5911 5907 5904 5904 5906 5903 5903 5903 5903 5902 5900
5794 5803 5811 5817 5826 5834 5841 5848 5853 5858 5863 5869 5873 5878 5883 5887 5890 5894 5898 5901 5904 5906 5909 5912 5915 5917 5916 5917 5916 5915 5915 5916 5915 5913 5910 5908 5903 5904 5907 5906 5905 5905 5905 5905 5903
5787 5796 5804 5813 5823 5829 5836 5843 5848 5853 5859 5867 5872 5877 5881 5883 5888 5891 5896 5900 5903 5904 5907 5911 5914 5915 5915 5915 5915 5915 5915 5915 5914 5913 5910 5908 5907 5907 5909 5909 5907 5908 5907 5906 5903
5782 5791 5799 5809 5818 5825 5833 5839 5843 5849 5856 5863 5868 5872 5877 5882 5886 5889 5893 5897 5900 5903 5907 5910 5912 5914 5916 5916 5916 5916 5914 5914 5914 5913 5912 5910 5912 5912 5912 5912 5911 5910 5909 5907 5904
5777 5786 5795 5805 5814 5822 5828 5834 5840 5847 5851 5857 5863 5869 5874 5879 5882 5885 5890 5894 5897 5901 5904 5907 5912 5914 5916 5916 5916 5916 5916 5914 5914 5914 5913 5913 5914 5915 5914 5913 5913 5912 5909 5906 5904
5774 5783 5792 5802 5811 5817 5823 5830 5838 5842 5848 5855 5861 5866 5871 5877 5880 5884 5888 5893 5895 5899 5902 5907 5912 5914 5916 5917 5916 5916 5915 5914 5915 5915 5915 5915 5916 5916 5914 5915 5914 5913 5909 5907 5906
5772 5780 5789 5799 5806 5812 5820 5828 5835 5839 5843 5849 5855 5861 5867 5873 5877 5881 5885 5890 5895 5899 5902 5906 5911 5913 5915 5916 5915 5915 5915 5915 5915 5915 5916 5917 5917 5917 5917 5917 5916 5915 5913 5911 5909
5770 5777 5786 5797 5802 5809 5817 5824 5829 5834 5840 5846 5853 5856 5862 5868 5874 5878 5884 5889 5893 5897 5900 5905 5909 5912 5914 5914 5915 5915 5916 5916 5915 5916 5918 5918 5918 5918 5918 5917 5916 5915 5914 5914 5912
5767 5775 5786 5793 5799 5807 5814 5821 5826 5831 5838 5843 5848 5854 5860 5865 5870 5874 5880 5885 5890 5896 5899 5905 5908 5911 5911 5913 5914 5914 5916 5916 5915 5916 5916 5917 5918 5919 5919 5918 5917 5916 5915 5914 5912
5767 5774 5783 5788 5796 5803 5811 5817 5822 5828 5834 5840 5845 5851 5857 5862 5869 5873 5880 5885 5889 5893 5896 5901 5905 5909 5910 5910 5912 5913 5914 5913 5915 5917 5916 5916 5918 5918 5918 5917 5916 5916 5915 5913 5911
5764 5772 5780 5785 5794 5801 5808 5813 5818 5825 5830 5836 5842 5848 5853 5858 5864 5870 5876 5882 5887 5891 5896 5899 5902 5905 5908 5908 5910 5910 5912 5912 5914 5917 5916 5915 5916 5916 5916 5915 5914 5913 5912 5911 5910
5760 5768 5776 5783 5790 5797 5804 5809 5814 5820 5826 5833 5838 5844 5850 5855 5862 5867 5873 5878 5883 5888 5893 5896 5899 5903 5906 5908 5908 5909 5910 5911 5914 5915 5915 5913 5913 5914 5914 5913 5912 5911 5911 5910 5908
5756 5763 5772 5778 5785 5792 5799 5805 5811 5817 5823 5829 5836 5842 5847 5852 5859 5865 5869 5873 5878 5884 5888 5892 5896 5900 5904 5906 5907 5908 5908 5910 5911 5912 5913 5912 5911 5912 5911 5911 5910 5909 5909 5907 5906
5750 5758 5766 5772 5780 5787 5795 5801 5807 5813 5819 5827 5833 5838 5843 5849 5854 5862 5866 5870 5876 5881 5884 5889 5893 5897 5901 5902 5904 5905 5906 5907 5909 5910 5910 5910 5909 5909 5909 5908 5908 5906 5905 5905 5904
5744 5750 5757 5765 5772 5781 5788 5796 5802 5809 5816 5822 5829 5833 5840 5847 5851 5857 5862 5868 5873 5877 5881 5886 5890 5893 5897 5898 5900 5901 5902 5904 5906 5906 5907 5906 5907 5907 5907 5906 5905 5904 5903 5902 5901
5734 5741 5748 5756 5763 5773 5781 5789 5796 5803 5810 5817 5822 5831 5840 5843 5847 5854 5858 5864 5869 5874 5878 5882 5887 5890 5892 5894 5896 5897 5898 5899 5901 5903 5904 5903 5903 5904 5903 5903 5901 5899 5898 5897 5896